Metropolis, IL

10:18 PM CDT on September 18, 2019 (GMT -0500)
Metropolis

Weather History for KM30 - August, 2019

Change the Weather History Date:

Wednesday, August 21, 2019

  Actual Average (KPAH) Record (KPAH)
Temperature  
Mean Temperature 79 °F -  
Max Temperature 90 °F 87 °F 100 °F (1987)
Min Temperature 68 °F 65 °F 50 °F (1950)
Cooling Degree Days 14    
Growing Degree Days 29 (Base 50)    
Moisture  
Dew Point 71 °F    
Average Humidity 78    
Maximum Humidity 98    
Minimum Humidity 61    
Precipitation  
Precipitation 0.00 in - - ()
Sea Level Pressure  
Sea Level Pressure 30.01 in    
Wind  
Wind Speed 3 mph (WSW)    
Max Wind Speed 10 mph    
Max Gust Speed 20 mph    
Visibility 7 miles    
Events      
Averages and records for this station are not official NWS values.
T = Trace of Precipitation, MM = Missing Value Source: NWS Daily Summary

Daily Weather History Graph

Daily Weather History Graph

Search for Another Location

Airport or City:

Astronomy

Aug. 21, 2019 Rise Set
Actual Time 6:16 AM CDT 7:39 PM CDT
Civil Twilight 5:49 AM CDT 8:06 PM CDT
Nautical Twilight 5:16 AM CDT 8:39 PM CDT
Astronomical Twilight 4:42 AM CDT 9:13 PM CDT
Moon 11:04 PM CDT (8/21) 11:44 AM CDT (8/21)
Length of Visible Light 14h 17m
Length of Day
13h 23m
Waning Gibbous, 69% of the Moon is Illuminated
Aug 21
Waning Gibbous
Aug 23
Last Quarter
Aug 30
New
Sep 5
First Quarter
Sep 13
Full

Hourly Weather History & Observations

Time (CDT) Temp. Heat Index Dew Point Humidity Pressure Visibility Wind Dir Wind Speed Gust Speed Precip Events Conditions
12:15 AM 71.6 °F - 69.4 °F 93% 30.04 in 10.0 mi SW 5.8 mph - N/A   Clear
12:35 AM 71.6 °F - 69.3 °F 92% 30.04 in 10.0 mi SSW 3.5 mph - N/A   Clear
12:55 AM 70.9 °F - 68.9 °F 93% 30.05 in 10.0 mi Calm Calm - N/A   Clear
1:15 AM 69.8 °F - 68.5 °F 96% 30.05 in 7.0 mi Calm Calm - N/A   Clear
1:35 AM 69.3 °F - 68.4 °F 97% 30.04 in 7.0 mi Calm Calm - N/A   Clear
1:55 AM 69.1 °F - 68.4 °F 98% 30.04 in 10.0 mi Calm Calm - N/A   Clear
2:15 AM 69.1 °F - 68.4 °F 98% 30.03 in 4.0 mi Calm Calm - N/A   Clear
2:35 AM 68.2 °F - 67.3 °F 97% 30.02 in 7.0 mi Calm Calm - N/A   Clear
2:55 AM 68.9 °F - 68.0 °F 97% 30.02 in 7.0 mi Calm Calm - N/A   Clear
3:15 AM 68.7 °F - 68.2 °F 98% 30.01 in 10.0 mi Calm Calm - N/A   Clear
3:35 AM 70.0 °F - 69.1 °F 97% 30.02 in 10.0 mi Calm Calm - N/A   Clear
3:55 AM 69.8 °F - 68.9 °F 97% 30.02 in 10.0 mi Calm Calm - N/A   Mostly Cloudy
4:15 AM 69.8 °F - 68.9 °F 97% 30.01 in 7.0 mi Calm Calm - N/A   Overcast
4:35 AM 69.6 °F - 68.5 °F 96% 30.01 in 10.0 mi Calm Calm - N/A   Scattered Clouds
4:55 AM 68.9 °F - 68.0 °F 97% 30.01 in 5.0 mi Calm Calm - N/A   Mostly Cloudy
5:15 AM 68.7 °F - 68.0 °F 98% 30.00 in 5.0 mi Calm Calm - N/A   Mostly Cloudy
5:35 AM 68.7 °F - 68.0 °F 98% 30.01 in 5.0 mi Calm Calm - N/A   Mostly Cloudy
5:55 AM 68.9 °F - 68.0 °F 97% 30.01 in 7.0 mi Calm Calm - N/A   Mostly Cloudy
6:15 AM 68.2 °F - 67.5 °F 98% 30.02 in 7.0 mi Calm Calm - N/A   Mostly Cloudy
6:35 AM 68.5 °F - 67.8 °F 98% 30.02 in 5.0 mi Calm Calm - N/A   Scattered Clouds
6:55 AM 69.3 °F - 68.4 °F 97% 30.04 in 10.0 mi Calm Calm - N/A   Clear
7:15 AM 70.5 °F - 69.3 °F 96% 30.05 in 10.0 mi Calm Calm - N/A   Clear
7:35 AM 72.0 °F - 69.3 °F 91% 30.05 in 10.0 mi Calm Calm - N/A   Clear
8:15 AM 74.8 °F - 70.3 °F 86% 30.04 in 10.0 mi SW 4.6 mph - N/A   Clear
8:35 AM 76.1 °F - 70.2 °F 82% 30.05 in 10.0 mi West 4.6 mph - N/A   Clear
8:55 AM 77.0 °F - 70.2 °F 79% 30.05 in 10.0 mi SW 5.8 mph - N/A   Clear
9:15 AM 78.1 °F - 71.1 °F 79% 30.05 in 10.0 mi SW 5.8 mph - N/A   Clear
9:35 AM 79.0 °F - 70.5 °F 75% 30.05 in 10.0 mi WSW 6.9 mph - N/A   Clear
9:55 AM 80.6 °F 84.4 °F 71.1 °F 73% 30.05 in 10.0 mi WSW 8.1 mph - N/A   Clear
10:15 AM 81.1 °F 85.6 °F 72.0 °F 74% 30.06 in 7.0 mi SW 6.9 mph - N/A   Clear
10:35 AM 82.0 °F 86.3 °F 71.1 °F 69% 30.05 in 4.0 mi WSW 6.9 mph - N/A   Haze
10:55 AM 83.5 °F 88.5 °F 71.6 °F 67% 30.05 in 10.0 mi SSW 5.8 mph - N/A   Clear
11:15 AM 84.2 °F 89.9 °F 72.0 °F 67% 30.05 in 10.0 mi WSW 5.8 mph - N/A   Clear
11:35 AM 84.7 °F 89.4 °F 70.3 °F 62% 30.05 in 4.0 mi WSW 8.1 mph - N/A   Haze
11:55 AM 86.0 °F 91.5 °F 71.2 °F 61% 30.05 in 4.0 mi WSW 3.5 mph - N/A   Haze
12:15 PM 86.4 °F 92.2 °F 71.6 °F 61% 30.05 in 4.0 mi SW 9.2 mph - N/A   Haze
12:35 PM 86.2 °F 92.2 °F 72.0 °F 62% 30.05 in 10.0 mi SW 9.2 mph - N/A   Clear
12:55 PM 87.1 °F 93.6 °F 72.1 °F 61% 30.05 in 7.0 mi SW 9.2 mph - N/A   Clear
1:15 PM 87.3 °F 94.5 °F 73.0 °F 62% 30.04 in 7.0 mi SW 9.2 mph - N/A   Clear
1:35 PM 88.2 °F 96.4 °F 73.8 °F 62% 30.04 in 10.0 mi WSW 4.6 mph - N/A   Clear
1:55 PM 88.3 °F 97.4 °F 74.1 °F 63% 30.04 in 4.0 mi West 6.9 mph - N/A   Haze
2:15 PM 88.7 °F 98.2 °F 74.8 °F 63% 30.04 in 5.0 mi SW 6.9 mph - N/A   Haze
2:35 PM 89.1 °F 99.6 °F 75.6 °F 64% 30.03 in 10.0 mi SW 8.1 mph - N/A   Clear
2:55 PM 89.8 °F 99.7 °F 74.7 °F 61% 30.02 in 10.0 mi WSW 5.8 mph - N/A   Clear
3:15 PM 89.2 °F 99.5 °F 75.4 °F 63% 30.01 in 7.0 mi SSW 4.6 mph - N/A   Clear
3:35 PM 89.8 °F 100.3 °F 75.0 °F 62% 30.00 in 5.0 mi West 8.1 mph - N/A   Haze
3:55 PM 89.8 °F 101.5 °F 76.3 °F 64% 29.99 in 4.0 mi WNW 3.5 mph - N/A   Haze
4:15 PM 89.6 °F 100.4 °F 75.4 °F 63% 29.99 in 4.0 mi West 3.5 mph - N/A   Haze
4:35 PM 89.8 °F 100.3 °F 75.0 °F 62% 29.98 in 5.0 mi Calm Calm - N/A   Haze
4:55 PM 90.0 °F 101.3 °F 75.7 °F 63% 29.97 in 3.0 mi Calm Calm - N/A   Haze
5:15 PM 89.4 °F 101.1 °F 76.1 °F 65% 29.97 in 3.0 mi Calm Calm - N/A   Haze
5:35 PM 89.1 °F 99.1 °F 75.2 °F 63% 29.97 in 3.0 mi Calm Calm - N/A   Haze
5:55 PM 87.1 °F 96.3 °F 75.0 °F 67% 29.97 in 4.0 mi Calm Calm - N/A   Haze
6:15 PM 85.1 °F 96.2 °F 77.7 °F 78% 29.96 in 4.0 mi Calm Calm - N/A   Haze
6:35 PM 84.0 °F 94.0 °F 77.4 °F 80% 29.96 in 4.0 mi Calm Calm - N/A   Haze
6:55 PM 83.7 °F 94.5 °F 78.3 °F 84% 29.96 in 5.0 mi Calm Calm - N/A   Haze
7:15 PM 82.9 °F 93.1 °F 78.3 °F 86% 29.96 in 5.0 mi Calm Calm - N/A   Haze
7:35 PM 82.8 °F 91.6 °F 77.0 °F 83% 29.97 in 5.0 mi Calm Calm - N/A   Haze
7:55 PM 82.9 °F 91.8 °F 76.8 °F 82% 29.97 in 5.0 mi South 3.5 mph - N/A   Haze
8:15 PM 82.6 °F 89.4 °F 74.8 °F 77% 29.99 in 5.0 mi WSW 9.2 mph - N/A   Haze
8:35 PM 80.6 °F 83.5 °F 68.7 °F 67% 30.00 in 5.0 mi WSW 9.2 mph - N/A   Haze
8:55 PM 79.9 °F - 68.4 °F 68% 30.01 in 7.0 mi WSW 8.1 mph - N/A   Clear
9:35 PM 77.9 °F - 68.2 °F 72% 29.99 in 10.0 mi SW 10.4 mph 16.1 mph N/A   Clear
9:55 PM 77.5 °F - 67.6 °F 71% 29.98 in 10.0 mi South 10.4 mph - N/A   Clear
10:15 PM 77.4 °F - 66.4 °F 69% 29.96 in 10.0 mi SSW 10.4 mph 19.6 mph N/A   Clear
10:35 PM 77.2 °F - 64.2 °F 64% 29.95 in 10.0 mi SW 4.6 mph - N/A   Clear
10:55 PM 77.4 °F - 63.3 °F 62% 29.96 in 10.0 mi WSW 5.8 mph - N/A   Clear
11:15 PM 75.4 °F - 64.9 °F 70% 29.97 in 10.0 mi North 3.5 mph - N/A   Clear
11:35 PM 74.8 °F - 66.0 °F 74% 29.96 in 10.0 mi NNE 5.8 mph - N/A   Clear
11:55 PM 74.1 °F - 67.6 °F 80% 29.98 in 10.0 mi Calm Calm - N/A   Clear